Regional Weather Roundup
Issued by NWS

Home | Current Version | Previous Version | Graphics & Text | Print | Product List | Glossary Off
Versions: 1 2 3 4 5 6 7 8 9 10 11 12 13 14 15 16 17 18 19 20 21 22 23 24 25 26 27 28 29 30 31 32 33 34 35 36 37 38 39 40 41 42 43 44 45 46 47 48 49 50

000
ASUS43 KMKX 250700
RWRWI

WISCONSIN REGIONAL WEATHER ROUNDUP
NATIONAL WEATHER SERVICE MILWAUKEE/SULLIVAN WI
200 AM CDT TUE APR 25 2017

NOTE: "FAIR" INDICATES FEW OR NO CLOUDS BELOW 12,000 FEET WITH NO
SIGNIFICANT WEATHER AND/OR OBSTRUCTIONS TO VISIBILITY.

WIZ001-002-006>008-014>016-023>028-250800-
NORTHWEST WISCONSIN

CITY           SKY/WX    TMP DP  RH WIND       PRES   REMARKS
SUPERIOR ARPT  CLOUDY    38  35  89 NE12G22   29.66S WCI  30
ASHLAND        CLOUDY    39  36  89 CALM      29.62F
HAYWARD        CLOUDY    64  31  28 S13G26    29.58F
SIREN          LGT RAIN  53  36  53 CALM      29.62R
CUMBERLAND     CLOUDY    59  30  33 SE16G24   29.58S
RICE LAKE      CLOUDY    62  31  31 SE14      29.61S
CHETEK         CLOUDY    60  35  38 SE10G17   29.63R
LADYSMITH      MOCLDY    58  35  40 E7        29.66F
EAU CLAIRE     NOT AVBL
MENOMONIE      CLOUDY    59  34  39 CALM      29.59F
NEW RICHMOND   CLOUDY    58  37  44 NE5       29.57S
OSCEOLA        CLOUDY    55  46  70 E10       29.57F
$$

WIZ003>005-009-010-017-018-250800-
NORTH CENTRAL WISCONSIN

CITY           SKY/WX    TMP DP  RH WIND       PRES   REMARKS
MANITOWISH WTR CLOUDY    52  33  47 S6        29.70S
ARBOR VITAE    CLOUDY    54  33  45 SE9       29.69F
WOODRUFF       CLOUDY    54  33  45 SE9       29.69F
RHINELANDER    CLOUDY    51  35  54 E8        29.71F
EAGLE RIVER    CLOUDY    48  32  54 SE8       29.72S
LAND O LAKES   CLOUDY    47  34  59 SE7       29.74F
PHILLIPS       CLOUDY    55  35  46 SE7       29.66F
TOMAHAWK       CLOUDY    53  30  42 CALM      29.70S
MEDFORD        CLOUDY    55  34  45 SE6       29.67S
MERRILL        CLOUDY    56  32  40 SE6       29.70F
$$

WIZ029-030-035-036-043>047-250800-
CENTRAL WISCONSIN

CITY           SKY/WX    TMP DP  RH WIND       PRES   REMARKS
WAUSAU         CLOUDY    58  32  37 SE10      29.68F
MOSINEE        CLOUDY    55  32  41 SE7       29.70F
MARSHFIELD     CLOUDY    58  32  37 S9        29.66F
STEVENS POINT  CLOUDY    59  32  36 SE9       29.71S
WAUPACA        PTCLDY    60  29  31 E10       29.73F
WAUTOMA        CLOUDY    60  32  34 SE5       29.72F
WISC RAPIDS    NOT AVBL
CAMP DOUGLAS   NOT AVBL
$$

WIZ011>013-019>022-031-037>040-048>050-250800-
NORTHEAST WISCONSIN

CITY           SKY/WX    TMP DP  RH WIND       PRES   REMARKS
ANTIGO         CLOUDY    47  35  62 SE14      29.73F
SHAWANO        CLOUDY    51  38  61 E7        29.72F
OCONTO         CLOUDY    45  36  72 W16G22    29.84R
STURGEON BAY   CLOUDY    52  39  61 W8        29.82R
GREEN BAY      CLOUDY    51  38  60 NE7       29.75F
MANITOWOC      NOT AVBL
APPLETON       CLOUDY    54  32  43 SE8       29.74F
CLINTONVILLE   CLOUDY    61  32  33 S18       29.71F
OSHKOSH        CLOUDY    58  33  39 SE10      29.72F
$$

WIZ032>034-041-042-053>061-250800-
SOUTHWEST WISCONSIN

CITY           SKY/WX    TMP DP  RH WIND       PRES   REMARKS
LA CROSSE      CLEAR     63  31  30 SE10      29.60F
SPARTA         PTCLDY    61  33  34 SE10      29.65F
VIROQUA        CLEAR     57  30  36 SE13      29.65F
BOSCOBEL       CLEAR     61  31  32 VRB7      29.65F
PRAIRIE DU CHI CLEAR     58  31  35 SE8       29.63S
PLATTEVILLE    CLEAR     55  34  43 SE12      29.68F
$$

WIZ056-057-062-063-064-067-068-250800-
SOUTH CENTRAL WISCONSIN

CITY           SKY/WX    TMP DP  RH WIND       PRES   REMARKS
REEDSBURG      CLEAR     57  32  38 CALM      29.69F
BARABOO/DELLS  CLEAR     57  30  36 SE7       29.69F
LONE ROCK      NOT AVBL
MINERAL POINT  CLOUDY    54  32  43 SE6       29.68F
MADISON        CLOUDY    59  34  39 SE10      29.70F
MIDDLETON      CLOUDY    61  32  34 SE10G16   29.71S
WATERTOWN      CLOUDY    58  35  41 SE10G17   29.72F
MONROE         PTCLDY    55  34  44 SE10      29.70F
JANESVILLE     PTCLDY    57  34  41 SE8       29.71F
$$

WIZ051-052-058>065-066-070>072-250800-
SOUTHEAST WISCONSIN

CITY           SKY/WX    TMP DP  RH WIND       PRES   REMARKS
MILWAUKEE      MOCLDY    52  39  61 SE13      29.75F
WAUKESHA       MOCLDY    54  32  43 SE8       29.77R
MILWAUKEE/TIMM CLOUDY    50  32  50 SE6       29.76F
RACINE         PTCLDY    53  36  52 SE9       29.77F
KENOSHA        PTCLDY    55  35  47 SE13      29.75F
FOND DU LAC    PTCLDY    56  33  42 SE10      29.73F
SHEBOYGAN      CLOUDY    51  38  60 SE9       29.76F
WEST BEND      MOCLDY    54  32  43 SE6       29.77R
JUNEAU         PTCLDY    56  35  43 SE8       29.75R
$$

LSZ147-162-250800-
LAKE SUPERIOR

STATION/POSITION TIME  TEMP    WIND        PRES    WAVE
                       AIR SEA DIR/SP/G            HT/PER
                 (UTC) (F)     (DEG/KT/KT) (MB)    (FT/S)
DEVILS ISLAND    0600   38      50/ 22/ 26 1004.2R
PORT WING        0540   38      40/ 14/ 18 1003.7F
SAXON HARBOR     0640   40     330/  5/  6 1002.7F
$$

LMZ867-665-643>646-250800-
LAKE MICHIGAN

STATION/POSITION TIME  TEMP    WIND        PRES    WAVE
                       AIR SEA DIR/SP/G            HT/PER
                 (UTC) (F)     (DEG/KT/KT) (MB)    (FT/S)
CHAMBERS ISLAND  0630   43      CALM  /  2 1009.1R
N MID LAKE BUOY  0550   43 37  120/ 14/ 14 1010.8F   2/ 4
NORTHPORT PIER   0640   44     180/  4/  8 1008.8F
SISTER BAY       0521   46     140/  7/ 10   N/A
ALGOMA LAKESHORE 0514             CALM       N/A
KEWAUNEE LAKESHO 0630   49     180/  6/ 12 1008.4F
SHEBOYGAN LAKESH 0600   48      10/  1/  2 1008.9R
PORT WASHINGTON  0640   49     100/  7/  8 1008.5F
MILWAUKEE LAKESH 0640   49      70/  5/  5   N/A
S MID LAKE BUOY  0550   48 41  100/  8/ 10 1009.0F   1
KENOSHA   LAKESH 0600   53     160/ 10/ 12 1008.1
$$

TC  - TEMPERATURE IN CELSIUS
VSB - VISIBILITY IN STATUTE MILES
WCI - WIND CHILL INDEX
HX  - HEAT INDEX





USA.gov is the U.S. government's official web portal to all federal, state and local government web resources and services.